Simultaneous Nadir Overpasses (SNOs) Predictions

Prediction of SNOs between NOAA-19 and TERRA Satellite Orbit:

Table of predicted SNOs for the next 14.0 days since TLE Epoch: 11/5/2016
Index Date (NOAA-19) Time (NOAA-19) Lat,Lon (NOAA-19) SZA (NOAA-19 ) Date (TERRA) Time (TERRA) Lat,Lon (TERRA) SZA (TERRA ) Distance(km) Time Diff (sec)
1 11/06/2016 17:38:49 74.47, -76.07 91.01 11/06/2016 17:38:51 74.46, -76.06 91.00 1.35 2
2 11/06/2016 18:29:35 -74.06, 92.32 89.33 11/06/2016 18:28:25 -74.14, 90.82 89.36 46.60 70
3 11/08/2016 22:21:53 74.81,-147.73 91.93 11/08/2016 22:23:03 74.71,-146.51 91.91 37.33 70
4 11/08/2016 23:12:40 -74.45, 20.58 88.37 11/08/2016 23:12:36 -74.44, 20.46 88.38 3.46 4
5 11/11/2016 03:55:39 -74.56, -50.41 87.67 11/11/2016 03:56:51 -74.54, -50.38 87.67 2.56 72
6 11/11/2016 04:46:44 74.45, 117.10 92.26 11/11/2016 04:46:18 74.45, 117.05 92.25 1.50 26
7 11/13/2016 09:29:42 74.52, 46.22 92.91 11/13/2016 09:30:33 74.54, 46.20 92.93 1.44 51
8 11/13/2016 10:20:36 -74.49,-146.40 87.12 11/13/2016 10:20:02 -74.47,-146.32 87.14 2.88 34
9 11/15/2016 15:03:34 -74.56, 142.72 86.50 11/15/2016 15:04:17 -74.56, 142.81 86.49 2.60 43
10 11/15/2016 15:54:39 74.47, -49.80 93.44 11/15/2016 15:53:44 74.47, -49.76 93.43 1.09 55
11 11/17/2016 20:37:37 74.55,-120.71 94.04 11/17/2016 20:37:59 74.54,-120.65 94.04 2.15 22
